CW0333 Weather Reports


time (UTC)temp
C
wind
direction
speed
KPH
gust
KPH
rain 1hr
cm
rain 24hr
cm
rain mn
cm
humidity
%
barometer
mb
20260507081652 10 339 11.3 29.0 0.00 0.00 0.00 91 1006.8
20260507081143 10 290 4.8 12.9 0.00 0.00 0.00 90 1007.0
20260507080640 10 307 6.4 16.1 0.00 0.00 0.00 90 1007.2
20260507080136 10 317 8.0 11.3 0.00 0.00 0.00 91 1007.1
20260507075631 10 281 6.4 11.3 0.00 0.00 0.00 91 1007.1
20260507075128 10 315 14.5 20.9 0.00 0.00 0.00 91 1006.9
20260507074625 10 321 9.7 14.5 0.00 0.00 0.00 91 1006.7
20260507074123 10 325 11.3 12.9 0.00 0.00 0.00 91 1006.8
20260507073619 10 317 4.8 11.3 0.00 0.00 0.00 91 1006.7
20260507073115 10 310 6.4 12.9 0.00 0.00 0.00 91 1006.6
20260507072613 10 323 9.7 11.3 0.00 0.00 0.00 91 1006.6
20260507072110 10 304 8.0 14.5 0.00 0.00 0.00 91 1006.7
20260507071607 10 335 4.8 12.9 0.00 0.00 0.00 91 1007.1
20260507071103 10 330 9.7 9.7 0.00 0.00 0.00 91 1006.6
20260507070601 10 329 8.0 16.1 0.00 0.00 0.00 91 1006.6
20260507070057 10 307 4.8 14.5 0.00 0.00 0.00 90 1006.7
20260507065554 10 315 11.3 12.9 0.00 0.00 0.00 90 1006.5
20260507065051 10 243 0.0 17.7 0.00 0.00 0.00 91 1006.8
20260507064549 10 229 3.2 6.4 0.00 0.00 0.00 91 1006.4
20260507064047 10 12 1.6 17.7 0.00 0.00 0.00 91 1006.5
20260507063544 10 315 3.2 11.3 0.00 0.00 0.00 91 1006.3
20260507063041 10 274 0.0 12.9 0.00 0.00 0.00 91 1006.2
20260507062538 10 259 4.8 11.3 0.00 0.00 0.00 91 1006.0
20260507062035 10 339 6.4 17.7 0.00 0.00 0.00 91 1006.3
20260507061533 10 315 16.1 16.1 0.00 0.00 0.00 91 1006.2
20260507061031 10 331 4.8 11.3 0.00 0.00 0.00 91 1006.3
20260507060528 10 296 4.8 9.7 0.00 0.00 0.00 91 1006.5
20260507060025 10 319 9.7 12.9 0.00 0.00 0.00 91 1006.7
20260507055520 10 289 6.4 16.1 0.00 0.00 0.00 92 1006.6
20260507055016 10 357 11.3 19.3 0.00 0.00 0.00 92 1006.6
20260507054513 11 262 4.8 17.7 0.00 0.00 0.00 93 1006.6
20260507054010 11 297 8.0 12.9 0.00 0.00 0.00 92 1006.7
20260507053508 11 350 4.8 12.9 0.00 0.00 0.00 93 1006.7
20260507053006 11 306 8.0 12.9 0.00 0.00 0.00 93 1006.7
20260507052503 11 347 4.8 9.7 0.00 0.00 0.00 94 1006.6
20260507052000 11 257 4.8 11.3 0.00 0.00 0.00 93 1006.3
20260507051458 11 351 4.8 12.9 0.00 0.00 0.00 93 1006.1
20260507050954 11 323 11.3 14.5 0.00 0.00 0.00 93 1006.3
20260507050450 11 315 4.8 16.1 0.00 0.00 0.00 94 1006.3
20260507045948 11 315 11.3 14.5 0.00 0.00 0.00 93 1006.4
20260507045444 11 326 0.0 12.9 0.00 0.00 0.00 94 1006.3
20260507044942 11 266 8.0 11.3 0.00 0.00 0.00 95 1006.4
20260507044438 11 328 9.7 11.3 0.00 0.00 0.00 95 1006.6
20260507043934 12 286 3.2 6.4 0.00 0.00 0.00 95 1006.7
20260507043431 12 320 6.4 14.5 0.00 0.00 0.00 95 1006.6
20260507042927 12 310 8.0 16.1 0.00 0.00 0.00 95 1006.5
20260507042424 11 321 12.9 17.7 0.00 0.00 0.00 98 1006.4
20260507041919 11 293 3.2 8.0 0.00 0.00 0.00 99 1006.3
20260507041416 11 304 6.4 17.7 0.00 0.00 0.00 99 1006.4
20260507040914 11 259 6.4 9.7 0.00 0.00 0.00 99 1006.3
20260507040409 11 290 4.8 9.7 0.00 0.00 0.00 99 1006.2
20260507035905 12 242 4.8 14.5 0.00 0.79 0.79 99 1006.3
20260507035402 12 314 8.0 17.7 0.00 0.79 0.79 99 1006.2
20260507034859 13 270 6.4 12.9 0.00 0.79 0.79 99 1005.9
20260507034356 13 0 4.8 14.5 0.00 0.79 0.79 99 1005.9
20260507033854 13 99 0.0 27.4 0.00 0.79 0.79 99 1005.9
20260507033352 13 314 11.3 12.9 0.00 0.79 0.79 99 1005.9
20260507032848 13 320 4.8 19.3 0.00 0.79 0.79 99 1005.9
20260507032345 13 319 9.7 11.3 0.00 0.79 0.79 99 1005.9
20260507031841 12 344 4.8 12.9 0.00 0.79 0.79 99 1006.0
20260507031338 11 0 1.6 4.8 0.00 0.79 0.79 99 1005.6
20260507030834 10 314 8.0 8.0 0.00 0.79 0.79 99 1005.6
20260507030332 11 172 0.0 4.8 0.00 0.79 0.79 99 1005.7
20260507025829 11 168 1.6 6.4 0.00 0.79 0.79 99 1005.5
20260507025326 11 145 4.8 6.4 0.00 0.79 0.79 99 1005.6
20260507024824 11 158 4.8 6.4 0.00 0.79 0.79 99 1005.6
20260507024321 11 170 3.2 8.0 0.00 0.79 0.79 99 1005.6
20260507023817 10 128 3.2 4.8 0.00 0.79 0.79 99 1005.5
20260507023313 10 194 0.0 4.8 0.00 0.79 0.79 99 1005.7
20260507022811 10 210 3.2 4.8 0.00 0.79 0.79 99 1005.7
20260507022307 11 68 0.0 9.7 0.00 0.79 0.79 99 1005.9
20260507021803 10 73 3.2 3.2 0.00 0.79 0.79 99 1005.8
20260507021259 10 35 1.6 4.8 0.00 0.79 0.79 99 1005.7
20260507020757 11 0 0.0 4.8 0.00 0.79 0.79 99 1005.9
20260507020253 11 75 1.6 3.2 0.00 0.79 0.79 99 1006.0
20260507015751 11 90 0.0 3.2 0.00 0.79 0.79 99 1006.1
20260507015248 11 35 0.0 4.8 0.00 0.79 0.79 99 1006.0
20260507014745 11 157 0.0 4.8 0.00 0.79 0.79 99 1006.2
20260507014241 11 182 4.8 8.0 0.00 0.79 0.79 99 1006.1
20260507013738 12 203 4.8 8.0 0.00 0.79 0.79 99 1006.1
20260507013236 12 195 3.2 4.8 0.00 0.79 0.79 99 1006.3
20260507012733 12 182 4.8 8.0 0.00 0.79 0.79 99 1006.0
20260507012228 12 217 6.4 9.7 0.00 0.79 0.79 99 1006.3
20260507011726 12 221 8.0 11.3 0.05 0.79 0.79 99 1006.3
20260507011222 12 224 12.9 12.9 0.05 0.79 0.79 99 1006.3
20260507010722 12 152 3.2 12.9 0.00 0.79 0.79 99 1006.1
20260507010218 12 194 9.7 12.9 0.00 0.79 0.79 99 1006.2
20260507005716 12 225 9.7 19.3 0.00 0.79 0.79 99 1006.3
20260507005212 12 230 11.3 19.3 0.00 0.79 0.79 99 1006.3
20260507004708 12 222 8.0 17.7 0.00 0.79 0.79 99 1006.4
20260507004206 12 229 14.5 29.0 0.00 0.79 0.79 99 1006.3
20260507003702 12 203 22.5 24.1 0.00 0.79 0.79 99 1006.1
20260507003158 12 266 8.0 14.5 0.00 0.79 0.79 99 1006.2
20260507002654 12 160 24.1 27.4 0.00 0.79 0.79 99 1006.4
20260507002150 12 220 16.1 20.9 0.00 0.79 0.79 99 1006.3
20260507001647 12 225 11.3 20.9 0.05 0.79 0.79 99 1006.2
20260507001144 12 201 6.4 14.5 0.05 0.79 0.79 99 1006.2
20260507000641 12 220 8.0 19.3 0.00 0.76 0.76 99 1006.2
20260507000136 12 190 8.0 19.3 0.05 0.76 0.76 99 1006.1
20260506235634 12 243 4.8 24.1 0.30 0.76 0.76 99 1006.1
20260506235133 12 195 11.3 16.1 0.36 0.76 0.76 99 1005.9
20260506234631 12 203 11.3 19.3 0.18 0.71 0.71 99 1006.2
20260506234128 12 220 11.3 20.9 0.05 0.71 0.71 99 1006.0
20260506233625 12 235 9.7 22.5 0.13 0.69 0.69 99 1006.2
20260506233122 12 213 11.3 19.3 0.13 0.69 0.69 99 1006.2
20260506232618 12 190 9.7 20.9 0.13 0.66 0.66 99 1006.2
20260506232114 12 216 9.7 17.7 0.13 0.66 0.66 99 1006.3
20260506231611 12 209 16.1 27.4 0.05 0.66 0.66 99 1006.2
20260506231109 12 212 17.7 22.5 0.05 0.64 0.64 99 1006.1
20260506230606 12 225 12.9 27.4 0.05 0.64 0.64 99 1006.2
20260506230103 12 173 14.5 32.2 0.05 0.64 0.64 99 1006.3
20260506225559 12 196 6.4 27.4 0.05 0.64 0.64 99 1006.4
20260506225055 12 193 11.3 19.3 0.00 0.61 0.61 99 1006.3
20260506224553 12 203 16.1 24.1 0.05 0.61 0.61 99 1006.3
20260506224049 12 235 14.5 27.4 0.13 0.61 0.61 99 1006.4
20260506223545 12 188 11.3 22.5 0.13 0.61 0.61 99 1006.5
20260506223042 12 196 9.7 16.1 0.18 0.61 0.61 99 1006.5
20260506222539 12 211 9.7 19.3 0.13 0.58 0.58 99 1006.5
20260506222035 12 189 6.4 16.1 0.13 0.56 0.56 99 1006.6
20260506221533 12 208 11.3 30.6 0.18 0.56 0.56 99 1006.6
20260506221031 12 185 14.5 19.3 0.05 0.56 0.56 99 1006.7
20260506220526 12 202 9.7 25.7 0.00 0.53 0.53 99 1006.8
20260506220022 12 191 14.5 19.3 0.05 0.53 0.53 99 1006.9
20260506215519 12 180 8.0 30.6 0.05 0.53 0.53 99 1006.8
20260506215015 12 180 11.3 35.4 0.05 0.53 0.53 99 1007.2
20260506214512 12 197 9.7 22.5 0.13 0.51 0.51 99 1007.0
20260506214009 12 221 12.9 24.1 0.18 0.51 0.51 99 1006.9
20260506213507 12 232 9.7 24.1 0.13 0.51 0.51 99 1007.1
20260506213004 12 232 16.1 20.9 0.05 0.48 0.48 99 1007.2
20260506212500 12 194 19.3 20.9 0.13 0.48 0.48 99 1007.2
20260506211955 12 189 19.3 27.4 0.18 0.48 0.48 99 1007.3
20260506211451 12 208 8.0 19.3 0.05 0.46 0.46 99 1007.4
20260506210949 13 208 20.9 32.2 0.13 0.46 0.46 99 1007.4
20260506210445 13 213 17.7 20.9 0.13 0.43 0.43 99 1007.4
20260506205942 13 206 14.5 32.2 0.13 0.43 0.43 99 1007.3
20260506205438 13 244 29.0 46.7 0.23 0.43 0.43 99 1007.3
20260506204934 13 183 20.9 35.4 0.30 0.41 0.41 98 1007.3
20260506204432 13 230 16.1 27.4 0.30 0.38 0.38 98 1007.3
20260506203930 13 255 14.5 30.6 0.36 0.36 0.36 98 1007.5
20260506203427 13 186 12.9 22.5 0.53 0.33 0.33 97 1007.4
20260506202923 13 242 16.1 30.6 0.48 0.30 0.30 97 1007.4
20260506202421 13 216 22.5 38.6 0.30 0.23 0.23 97 1007.6
20260506201917 13 214 12.9 22.5 0.36 0.20 0.20 96 1007.5
20260506201415 13 212 16.1 25.7 0.18 0.18 0.18 96 1007.3
20260506200911 13 203 9.7 32.2 0.18 0.15 0.15 96 1007.3
20260506200407 13 236 11.3 29.0 0.18 0.15 0.15 95 1007.1
20260506195904 13 192 12.9 32.2 0.13 0.13 0.13 95 1007.3
20260506195401 14 214 27.4 29.0 0.13 0.10 0.10 95 1007.2
20260506194858 15 222 11.3 20.9 0.13 0.10 0.10 95 1007.3
20260506194354 15 226 14.5 16.1 0.18 0.10 0.10 95 1007.4
20260506193852 15 214 8.0 11.3 0.13 0.08 0.08 95 1007.4
20260506193349 15 222 9.7 16.1 0.18 0.05 0.05 95 1007.6
20260506192845 15 202 8.0 16.1 0.13 0.05 0.05 94 1007.6
20260506192342 14 234 8.0 11.3 0.05 0.03 0.03 92 1007.7
20260506191839 15 253 24.1 24.1 0.13 0.03 0.03 91 1007.5
20260506191335 15 219 8.0 41.8 0.05 0.03 0.03 89 1007.6
20260506190832 15 230 29.0 35.4 0.05 0.00 0.00 89 1007.3
20260506190328 15 221 14.5 29.0 0.00 0.00 0.00 88 1007.2
20260506185825 15 200 12.9 54.7 0.00 0.00 0.00 87 1007.2
20260506185322 15 215 8.0 27.4 0.00 0.00 0.00 87 1007.3
20260506184819 15 200 14.5 32.2 0.00 0.00 0.00 86 1007.3
20260506184317 15 214 19.3 41.8 0.00 0.00 0.00 86 1007.4
20260506183814 15 213 27.4 32.2 0.00 0.00 0.00 87 1007.2
20260506183309 14 218 14.5 33.8 0.00 0.00 0.00 89 1007.4
20260506182806 13 209 17.7 29.0 0.00 0.00 0.00 89 1007.5
20260506182306 13 188 24.1 25.7 0.00 0.00 0.00 90 1007.6
20260506181801 13 206 14.5 20.9 0.00 0.00 0.00 89 1007.7
20260506181259 13 180 14.5 27.4 0.00 0.00 0.00 88 1007.7
20260506180756 14 221 8.0 33.8 0.00 0.00 0.00 87 1007.7
20260506180251 14 189 27.4 41.8 0.00 0.00 0.00 87 1007.7
20260506175748 13 207 17.7 25.7 0.00 0.00 0.00 88 1007.9
20260506175245 13 199 22.5 29.0 0.00 0.00 0.00 88 1007.8
20260506174743 14 197 19.3 40.2 0.00 0.00 0.00 87 1007.8
20260506174239 14 228 17.7 33.8 0.00 0.00 0.00 88 1007.7
20260506173737 13 190 16.1 27.4 0.00 0.00 0.00 88 1007.8
20260506173233 13 191 6.4 33.8 0.00 0.00 0.00 88 1007.8
20260506172730 13 212 9.7 35.4 0.00 0.00 0.00 88 1008.1
20260506172226 13 189 17.7 30.6 0.00 0.00 0.00 88 1007.9
20260506171719 13 183 17.7 35.4 0.00 0.00 0.00 88 1008.1
20260506171216 13 230 11.3 33.8 0.00 0.00 0.00 88 1008.1
20260506170714 13 195 16.1 25.7 0.00 0.00 0.00 87 1008.1
20260506170210 13 173 12.9 29.0 0.00 0.00 0.00 88 1008.1
20260506165709 13 192 19.3 32.2 0.00 0.00 0.00 88 1008.4
20260506165205 13 196 14.5 20.9 0.00 0.00 0.00 89 1008.4
20260506164702 13 202 17.7 30.6 0.00 0.00 0.00 88 1008.4
20260506164159 13 227 11.3 33.8 0.00 0.00 0.00 89 1008.5
20260506163656 13 190 9.7 24.1 0.00 0.00 0.00 88 1008.4
20260506163151 13 180 22.5 32.2 0.00 0.00 0.00 87 1008.6
20260506162647 14 193 14.5 25.7 0.00 0.00 0.00 87 1008.6
20260506162145 15 209 12.9 20.9 0.00 0.00 0.00 87 1008.7
20260506161642 15 184 12.9 27.4 0.00 0.00 0.00 87 1008.8
20260506161139 15 206 16.1 33.8 0.00 0.00 0.00 86 1009.0
20260506160636 14 204 14.5 27.4 0.00 0.00 0.00 87 1009.1
20260506160133 15 223 11.3 17.7 0.00 0.00 0.00 87 1009.1
20260506155632 15 203 14.5 24.1 0.00 0.00 0.00 87 1009.1
20260506155128 15 184 22.5 27.4 0.00 0.00 0.00 86 1009.3
20260506153230 15 225 14.5 29.0 0.00 0.00 0.00 86 1009.5
20260506152727 15 196 20.9 30.6 0.00 0.00 0.00 86 1009.5
20260506152225 15 218 17.7 27.4 0.00 0.00 0.00 85 1009.4
20260506151724 16 219 20.9 32.2 0.00 0.00 0.00 84 1009.5
20260506151220 16 211 19.3 27.4 0.00 0.00 0.00 85 1009.6
20260506150716 15 204 19.3 27.4 0.00 0.00 0.00 86 1009.7
20260506150213 15 232 19.3 32.2 0.00 0.00 0.00 86 1009.6
20260506145711 15 180 8.0 29.0 0.00 0.00 0.00 86 1009.6
20260506145207 16 208 14.5 17.7 0.00 0.00 0.00 85 1009.5
20260506144704 16 185 12.9 30.6 0.00 0.00 0.00 85 1009.4
20260506144201 15 193 8.0 30.6 0.00 0.00 0.00 88 1009.4
20260506143659 15 217 12.9 17.7 0.00 0.00 0.00 88 1009.4
20260506143156 15 176 12.9 24.1 0.00 0.00 0.00 88 1009.3
20260506142655 14 196 12.9 17.7 0.00 0.00 0.00 89 1009.3
20260506142152 13 189 12.9 19.3 0.00 0.00 0.00 90 1009.1
20260506141650 13 194 17.7 20.9 0.00 0.00 0.00 91 1009.3
20260506141148 13 176 9.7 24.1 0.00 0.00 0.00 91 1009.3
20260506140645 13 203 17.7 20.9 0.00 0.00 0.00 92 1009.2
20260506140142 13 183 11.3 25.7 0.00 0.00 0.00 92 1009.3
20260506135639 13 168 14.5 29.0 0.00 0.00 0.00 92 1009.4
20260506135135 13 187 16.1 19.3 0.00 0.00 0.00 91 1009.5
20260506134632 13 188 11.3 17.7 0.00 0.00 0.00 91 1009.7
20260506134128 13 184 8.0 16.1 0.00 0.00 0.00 91 1009.8
20260506133625 13 193 8.0 11.3 0.00 0.00 0.00 92 1009.6
20260506133122 13 192 9.7 16.1 0.00 0.00 0.00 93 1009.7
20260506132620 13 182 9.7 14.5 0.00 0.00 0.00 92 1009.7
20260506132116 13 193 12.9 19.3 0.00 0.00 0.00 91 1009.7
20260506131614 13 167 8.0 16.1 0.00 0.00 0.00 91 1009.7
20260506131110 13 169 9.7 19.3 0.00 0.00 0.00 91 1009.6
20260506130607 13 220 4.8 11.3 0.00 0.00 0.00 91 1009.7
20260506130104 13 182 9.7 17.7 0.00 0.00 0.00 92 1009.7
20260506125603 13 193 11.3 17.7 0.00 0.00 0.00 92 1009.4
20260506125100 12 122 6.4 20.9 0.00 0.00 0.00 93 1009.5
20260506124558 13 150 8.0 22.5 0.00 0.00 0.00 92 1009.5
20260506124055 12 185 14.5 17.7 0.00 0.00 0.00 92 1009.7
20260506123553 12 183 12.9 14.5 0.00 0.00 0.00 92 1009.7
20260506123051 12 182 16.1 16.1 0.00 0.00 0.00 94 1009.7
20260506122547 11 177 19.3 19.3 0.00 0.00 0.00 94 1009.7
20260506122046 11 198 9.7 20.9 0.00 0.00 0.00 94 1009.6
20260506121543 11 185 9.7 19.3 0.00 0.00 0.00 94 1009.5
20260506121039 11 180 6.4 16.1 0.00 0.00 0.00 94 1009.8
20260506120537 11 207 9.7 17.7 0.00 0.00 0.00 94 1010.0
20260506120034 12 177 11.3 16.1 0.00 0.00 0.00 94 1009.8
20260506115532 12 191 9.7 11.3 0.00 0.00 0.00 94 1010.2
20260506115030 12 175 8.0 9.7 0.00 0.00 0.00 94 1009.9
20260506114527 11 182 6.4 9.7 0.00 0.00 0.00 94 1010.0
20260506114026 12 178 6.4 11.3 0.00 0.00 0.00 94 1010.2
20260506113523 11 181 11.3 11.3 0.00 0.00 0.00 94 1010.0
20260506113020 11 207 6.4 16.1 0.00 0.00 0.00 94 1010.2
20260506112517 11 180 3.2 11.3 0.00 0.00 0.00 94 1010.2
20260506112014 11 170 3.2 11.3 0.00 0.00 0.00 94 1010.0
20260506111512 11 185 8.0 12.9 0.00 0.00 0.00 94 1009.8
20260506111009 11 154 4.8 11.3 0.00 0.00 0.00 94 1010.1
20260506110507 11 127 4.8 9.7 0.00 0.00 0.00 95 1010.2
20260506110004 11 187 4.8 9.7 0.00 0.00 0.00 95 1010.1
20260506105459 11 183 8.0 16.1 0.00 0.00 0.00 94 1010.0
20260506104957 11 172 4.8 6.4 0.00 0.00 0.00 94 1010.0
20260506104455 11 148 4.8 8.0 0.00 0.00 0.00 94 1009.9
20260506103953 11 151 4.8 8.0 0.00 0.00 0.00 94 1010.1
20260506103449 11 184 4.8 9.7 0.00 0.00 0.00 94 1010.1
20260506102946 11 170 6.4 12.9 0.00 0.00 0.00 94 1009.9
20260506102444 11 176 8.0 8.0 0.00 0.00 0.00 94 1009.9
20260506101942 11 188 6.4 12.9 0.00 0.00 0.00 95 1010.2
20260506101438 10 182 6.4 8.0 0.00 0.00 0.00 95 1009.9
20260506100935 10 150 4.8 11.3 0.00 0.00 0.00 94 1009.9
20260506100434 11 193 9.7 12.9 0.00 0.00 0.00 93 1009.9
20260506095931 11 196 11.3 14.5 0.00 0.00 0.00 91 1010.0
20260506095430 13 191 8.0 9.7 0.00 0.00 0.00 86 1009.9
20260506094925 15 196 4.8 14.5 0.00 0.00 0.00 87 1010.1
20260506094424 14 201 0.0 9.7 0.00 0.00 0.00 87 1010.0
20260506093921 13 196 6.4 8.0 0.00 0.00 0.00 88 1010.0
20260506093419 13 209 4.8 9.7 0.00 0.00 0.00 89 1009.9
20260506092917 13 198 8.0 9.7 0.00 0.00 0.00 90 1009.9
20260506092415 12 202 6.4 8.0 0.00 0.00 0.00 90 1009.8
20260506091911 12 191 4.8 8.0 0.00 0.00 0.00 89 1009.8
20260506091409 12 180 6.4 8.0 0.00 0.00 0.00 89 1009.6
20260506090906 13 192 4.8 6.4 0.00 0.00 0.00 89 1009.7
20260506090403 12 183 6.4 6.4 0.00 0.00 0.00 89 1009.9
20260506085900 12 128 0.0 6.4 0.00 0.00 0.00 89 1009.7
20260506085356 13 163 6.4 9.7 0.00 0.00 0.00 87 1009.8
20260506084853 13 162 4.8 8.0 0.00 0.00 0.00 89 1009.7
20260506084350 12 180 4.8 12.9 0.00 0.00 0.00 91 1009.7
20260506083846 12 128 4.8 4.8 0.00 0.00 0.00 89 1009.6
20260506083344 12 213 6.4 6.4 0.00 0.00 0.00 89 1009.6
20260506082841 12 156 3.2 4.8 0.00 0.00 0.00 89 1009.7
20260506082338 12 180 0.0 4.8 0.00 0.00 0.00 89 1009.7